Weather in Nyaung-u

Myanmar     22°46′09″N   95°25′34″E
В апреле 2022 года жителям России запретили посещать сайт meteo.paraplan.net по решению Генеральной прокуратуры. Аудитория сайта уменьшилась в 10 раз. Владельцы сайта не видят смысла в поддержке погодного сервера в таких условиях. Сайт будет закрыт в октябре.
temp.,
°C
wind,
m/s
gust,
m/s
humid.,
%
clouds,
%
prec.,
mm/h
press.,
hPa
HPBL,
m
25 september, sun
sun2500:30+25nne348698 0.4 100777
03:30+24n349097 0.3 1006120
06:30+24n2493100 0.8 1007149
09:30+29n227140 0.0 1009617
12:30+33nw225841 0.0 10061415
15:30+33w225341 0.0 10031726
18:30+29nne347596 0.4 100560
21:30+27nne228083 0.3 100823
26 september, mon
mon2600:30+26nne2287100 1.6 100741
03:30+25ene1192100 1.7 100623
06:30+24ese2495100 6.6 1008157
09:30+28se338073 0.0 1010710
12:30+32s236337 0.4 10071224
15:30+32sw1258100 0.9 10041482
18:30+29wnw117398 1.1 100514
21:30+28nne117750 0.0 100717
27 september, tue
tue2700:30+27ese118293 0.1 100620
03:30+25se2390100 1.4 100683
06:30+24sse5896100 8.4 1008301
09:30+26sse348697 0.8 1009419
12:30+30ssw226750 0.8 10061120
15:30+31ssw126243 0.1 10041284
18:30+28w007290 0.1 100411
21:30+28ene117952 0.1 100620
28 september, wed
wed2800:30+26ese228639 0.1 100629
03:30+26ese238598 0.0 100599
06:30+25e3588100 0.0 1006196
09:30+29se33754 0.1 1007637
12:30+32ssw226136 0.9 10041339
15:30+32w115862 0.3 10011426
18:30+29n22728 0.3 100229
21:30+28e227856 0.0 100425
29 september, thu
thu2900:30+27ene1181100 0.1 100414
03:30+26nne228750 0.1 100324
06:30+25ene2290100 0.1 100486
09:30+29n22745 0.0 1005572
12:30+33nnw226199 0.1 10031429
15:30+33nnw2258100 0.0 10001339
18:30+30wnw1169100 0.0 100111
21:30+28nw2276100 0.0 100336